Location: ????????
(55.4717°N, 39.1821°E)
Time: 21:15:17
(UTC+00:00)

Cosmos 2221 - Pass Details

Date: 14 April 2024
Orbit: 582 x 603 km, 82.5° (Epoch: 23 May)

Event Time Altitude Azimuth Distance (km) Brightness Sun altitude
Exits shadow 00:05:21 31° 249° (WSW) 1,056 3.2 -16.8°
Maximum altitude 00:06:40 39° 290° (WNW) 891 3.2 -16.7°
Drops below altitude 10° 00:10:43 10° 0° (N) 1,937 5.8 -16.3°
Sets 00:13:03 0° 9° (N) 2,847 6.9 -16.1°
